[[{"header":{"parameterUnit":"m.s-1","parameterCategory":1,"la1":30.2991,"la2":30.254,"lo1":-89.0895,"lo2":-89.0444,"dy":0.0017,"dx":0.0017,"nx":28,"ny":28,"refTime":"2025-12-15T03:00:00:Z","depth":0,"parameterNumber":2,"parameterNumberName":"U-component_of_WINDS"},"data":[0,0,0,0,0,0,0,0,0,0,0,0,0,0,0,0,0,0,0,0,0,0,0,0,0,0,0,0,0,0,0,0,0,0,0,0,0,0,0,0,0,0,0,0,0,0,0,0,0,0,0,0,0,0,0,0,0,0,-3.5103,-3.5105,0,-3.5211,-3.5213,-3.5214,-3.5122,-3.5118,-3.5114,-3.5111,-3.5224,-3.523,-3.5236,0,0,0,0,0,0,0,0,0,0,0,0,0,-3.4818,-3.4824,-3.5103,-3.5105,-3.5106,-3.5211,-3.5213,-3.5214,-3.5123,-3.5118,-3.5113,-3.5109,-3.5221,-3.5229,-3.5237,0,0,0,0,0,0,0,0,0,0,0,0,0,-3.4936,-3.4826,-3.5103,-3.5073,-3.5071,-3.5211,-3.5213,-3.5215,-3.5124,-3.5118,-3.5112,-3.5107,-3.5219,-3.5228,-3.5238,-3.5414,0,0,-3.5268,-3.5272,0,0,0,0,0,0,0,0,-3.4929,-3.4947,-3.5076,-3.5075,-3.5074,-3.5147,-3.5153,-3.5281,-3.5125,-3.5104,-3.5111,-3.5104,-3.5203,-3.5214,-3.5247,-3.5419,-3.5424,-3.5269,-3.5275,-3.5279,-3.5282,0,0,0,0,0,0,0,-3.4921,-3.4941,-3.5146,-3.5078,-3.5077,-3.5054,-3.5065,-3.5177,-3.5184,-3.5105,-3.5099,-3.5113,-3.5201,-3.5237,-3.5249,-3.5425,-3.5269,-3.5278,-3.5284,-3.5287,-3.5746,-3.5752,0,0,0,0,0,0,-3.4916,-3.4935,-3.5143,-3.5149,-3.4986,-3.5064,-3.5076,-3.513,-3.5183,-3.5185,-3.5118,-3.5108,-3.5223,-3.5237,-3.5252,-3.5461,-3.5279,-3.5288,-3.5294,-3.574,-3.5747,-3.5754,0,0,0,0,0,0,-3.491,-3.4936,-3.5138,-3.5041,-3.5065,-3.5075,-3.5136,-3.5135,-3.5171,-3.5192,-3.5193,-3.5153,-3.5219,-3.5238,-3.5374,-3.5464,-3.5293,-3.5302,-3.5732,-3.5742,-3.5751,-3.5881,0,0,0,0,0,0,-3.4903,-3.4934,-3.5001,-3.5043,-3.507,-3.5259,-3.5142,-3.5141,-3.5188,-3.5176,-3.5226,-3.5229,-3.5216,-3.536,-3.5384,-3.5474,-3.531,-3.5724,-3.5737,-3.5748,-3.5869,-3.5894,-3.5915,0,0,0,0,0,-3.4893,-3.5034,-3.5005,-3.503,-3.5154,-3.5264,-3.528,-3.5262,-3.5195,-3.5263,-3.5276,-3.5227,-3.545,-3.5374,-3.5401,-3.5496,-3.5719,-3.5733,-3.5747,-3.5858,-3.5889,-3.5914,0,0,0,0,0,0,-3.5004,-3.5039,-3.5007,-3.5166,-3.5212,-3.5248,-3.5333,-3.5295,-3.5362,-3.5349,-3.5325,-3.5337,-3.548,-3.5501,-3.5416,-3.5668,-3.5573,-3.5594,-3.5649,-3.5678,-3.5701,-3.5694,-3.5318,0,0,0,0,0,-3.5046,-3.5132,-3.5158,-3.5296,-3.5321,-3.5323,-3.537,-3.5352,-3.54,-3.542,-3.5443,-3.5491,-3.5572,-3.5626,-3.5701,-3.587,-3.588,-3.5949,-3.5972,-3.599,-3.6009,-3.61,-3.613,-3.5801,-3.58,-3.58,0,0,-3.5136,-3.5166,-3.5222,-3.5319,-3.5353,-3.5443,-3.534,-3.544,-3.5506,-3.5435,-3.5564,-3.5583,-3.5635,-3.5788,-3.5857,-3.581,-3.6101,-3.6009,-3.6023,-3.6032,-3.6117,-3.6148,-3.6176,-3.581,-3.5808,-3.5807,0,0,-3.5345,-3.5376,-3.5494,-3.553,-3.5582,-3.5582,-3.561,-3.5652,-3.5661,-3.579,-3.5738,-3.5817,-3.5956,-3.5996,-3.6034,-3.6256,-3.6214,-3.6281,-3.6403,-3.6492,-3.6518,-3.6541,-3.6621,-3.665,-3.6299,-3.6299,-3.6299,0,-3.545,-3.5583,-3.556,-3.5663,-3.5707,-3.5645,-3.5764,-3.58,-3.5875,-3.5907,-3.5853,-3.6026,-3.6057,-3.6219,-3.6273,-3.6305,-3.6337,-3.6277,-3.6516,-3.6539,-3.656,-3.6636,-3.6666,-3.6307,-3.6306,-3.6305,-3.6305,0,-3.571,-3.5803,-3.5892,-3.5965,-3.6018,-3.613,-3.6123,-3.618,-3.6157,-3.6163,-3.6295,-3.6329,-3.641,-3.6447,-3.6426,-3.6605,-3.6575,-3.6519,-3.6424,-3.66,-3.6671,-3.6699,-3.6319,-3.6316,-3.6313,-3.6311,0,0,-3.5995,-3.6051,-3.6085,-3.6117,-3.6169,-3.624,-3.6348,-3.6426,-3.6476,-3.6529,-3.6619,-3.6737,-3.6686,-3.6729,-3.6712,-3.6789,-3.6964,-3.6724,-3.6725,-3.6768,-3.7164,-3.7207,-3.7241,-3.6935,-3.694,-3.6944,-3.716,0,-3.6207,-3.6394,-3.6375,-3.6553,-3.6638,-3.6579,-3.6673,-3.6715,-3.6723,-3.6796,-3.6804,-3.6889,-3.6814,-3.684,-3.6914,-3.6927,-3.7043,-3.6911,-3.7019,-3.7023,-3.701,-3.7278,-3.7324,-3.7525,-3.7187,-3.7192,-3.7195,0,-3.648,-3.6542,-3.6728,-3.6766,-3.6801,-3.6886,-3.6956,-3.7027,-3.7073,-3.7073,-3.7121,-3.7089,-3.7197,-3.7098,-3.7247,-3.7158,-3.72,-3.7213,-3.722,-3.7231,-3.7121,-3.7297,-3.7589,-3.762,-3.7239,-3.7235,-3.7232,0,-3.6671,-3.68,-3.6928,-3.6957,-3.7005,-3.7065,-3.7088,-3.7128,-3.7176,-3.7237,-3.7268,-3.7341,-3.7381,-3.7438,-3.7427,-3.7356,-3.7579,-3.7479,-3.7583,-3.7584,-3.7635,-3.7632,-3.7939,-3.766,-3.7659,-3.7659,-3.7658,0,-3.6911,-3.7027,-3.7014,-3.7093,-3.7222,-3.7198,-3.7326,-3.7341,-3.7377,-3.7458,-3.7411,-3.7488,-3.7468,-3.7544,-3.7536,-3.766,-3.7679,-3.7682,-3.7679,-3.7688,-3.7687,-3.7717,-3.7703,-3.7667,-3.7665,-3.7663,-3.7662,0,-3.7146,-3.7142,-3.7278,-3.7311,-3.7321,-3.7415,-3.7443,-3.7518,-3.752,-3.7623,-3.7646,-3.7651,-3.7738,-3.7732,-3.7831,-3.7825,-3.7979,-3.7958,-3.7964,-3.796,-3.8064,-3.8055,-3.8402,-3.8447,-3.8137,-3.814,-3.8143,0,-3.7301,-3.7389,-3.7431,-3.7481,-3.7507,-3.7589,-3.7638,-3.7617,-3.7669,-3.7728,-3.7795,-3.7878,-3.7943,-3.8085,-3.8097,-3.8172,-3.8154,-3.827,-3.8165,-3.8171,-3.8157,-3.8153,-3.8162,-3.8292,-3.8295,-3.8298,-3.8301,0,-3.7575,-3.7568,-3.7639,-3.771,-3.7769,-3.7824,-3.7873,-3.7917,-3.7902,-3.7963,-3.8051,-3.8101,-3.8201,-3.8284,-3.8354,-3.8377,-3.8338,-3.8333,-3.8361,-3.8372,-3.8372,-3.8374,-3.8022,-3.8326,-3.8323,-3.8322,-3.832,-3.8319,-3.7776,-3.7851,-3.7892,-3.7973,-3.8008,-3.8055,-3.8126,-3.8137,-3.821,-3.8289,-3.8272,-3.8372,-3.8414,-3.8505,-3.8535,-3.8612,-3.857,-3.8611,-3.8622,-3.8632,-3.8645,-3.8358,-3.8625,-3.8624,-3.8623,-3.8623,-3.8622,0,-3.8049,-3.8072,-3.8146,-3.8217,-3.828,-3.8234,-3.8287,-3.8343,-3.8431,-3.8473,-3.8538,-3.8639,-3.8718,-3.8736,-3.8812,-3.8871,-3.8854,-3.8892,-3.8888,-3.8894,-3.8677,-3.8646,-3.8904,-3.8904,-3.8904,-3.8903,-3.8903,-3.8903,-3.8199,-3.8324,-3.8321,-3.8463,-3.8485,-3.8581,-3.8615,-3.8658,-3.8692,-3.8807,-3.8872,-3.8883,-3.8916,-3.8993,-3.9064,-3.9067,-3.9098,-3.9143,-3.914,-3.8937,-3.8909,-3.8882,-3.8853,-3.915,-3.915,-3.935,-3.9352,-3.9353]},{"header":{"parameterUnit":"m.s-1","parameterCategory":1,"la1":30.2991,"la2":30.254,"lo1":-89.0895,"lo2":-89.0444,"dy":0.0017,"dx":0.0017,"nx":28,"ny":28,"refTime":"2025-12-15T03:00:00:Z","depth":0,"parameterNumber":3,"parameterNumberName":"V-component_of_WINDS"},"data":[0,0,0,0,0,0,0,0,0,0,0,0,0,0,0,0,0,0,0,0,0,0,0,0,0,0,0,0,0,0,0,0,0,0,0,0,0,0,0,0,0,0,0,0,0,0,0,0,0,0,0,0,0,0,0,0,0,0,-5.234,-5.2341,0,-5.2407,-5.2408,-5.2408,-5.2366,-5.2365,-5.2363,-5.2361,-5.2425,-5.2429,-5.2432,0,0,0,0,0,0,0,0,0,0,0,0,0,-5.2172,-5.2175,-5.234,-5.2341,-5.2342,-5.2407,-5.2408,-5.2408,-5.2367,-5.2364,-5.2362,-5.236,-5.2424,-5.2428,-5.2433,0,0,0,0,0,0,0,0,0,0,0,0,0,-5.2242,-5.2176,-5.234,-5.2329,-5.2329,-5.2407,-5.2408,-5.2409,-5.2367,-5.2364,-5.2361,-5.2359,-5.2423,-5.2428,-5.2433,-5.2525,0,0,-5.245,-5.2452,0,0,0,0,0,0,0,0,-5.2238,-5.2248,-5.233,-5.233,-5.233,-5.2375,-5.2372,-5.2448,-5.2368,-5.2353,-5.2361,-5.2357,-5.2411,-5.2417,-5.2436,-5.2528,-5.2531,-5.245,-5.2453,-5.2456,-5.2457,0,0,0,0,0,0,0,-5.2233,-5.2245,-5.2366,-5.2331,-5.2331,-5.2319,-5.2326,-5.2386,-5.2397,-5.2354,-5.2351,-5.2359,-5.241,-5.2431,-5.2437,-5.2532,-5.245,-5.2455,-5.2458,-5.246,-5.2698,-5.2701,0,0,0,0,0,0,-5.223,-5.2241,-5.2364,-5.2368,-5.2276,-5.2324,-5.2332,-5.2364,-5.2397,-5.2399,-5.2362,-5.2357,-5.2423,-5.2431,-5.2439,-5.2546,-5.2456,-5.2461,-5.2464,-5.2694,-5.2698,-5.2702,0,0,0,0,0,0,-5.2227,-5.2241,-5.2362,-5.2304,-5.2319,-5.233,-5.2366,-5.2366,-5.2387,-5.2403,-5.2404,-5.2381,-5.2421,-5.2432,-5.2503,-5.2547,-5.2463,-5.2468,-5.2691,-5.2696,-5.27,-5.2761,0,0,0,0,0,0,-5.2222,-5.224,-5.2277,-5.2305,-5.2322,-5.2426,-5.2369,-5.237,-5.2397,-5.2391,-5.2421,-5.2423,-5.242,-5.2495,-5.2508,-5.2553,-5.2472,-5.2687,-5.2693,-5.2698,-5.2755,-5.2767,-5.2778,0,0,0,0,0,-5.2216,-5.2291,-5.2279,-5.2294,-5.2368,-5.2429,-5.2438,-5.2434,-5.2401,-5.2436,-5.2445,-5.2422,-5.2541,-5.2503,-5.2517,-5.2564,-5.2684,-5.2691,-5.2698,-5.275,-5.2765,-5.2777,0,0,0,0,0,0,-5.2267,-5.2295,-5.2281,-5.2369,-5.2397,-5.2422,-5.2467,-5.245,-5.2487,-5.2481,-5.2472,-5.2479,-5.2553,-5.2566,-5.2524,-5.2653,-5.2607,-5.2617,-5.2641,-5.2656,-5.2667,-5.2661,-5.2476,0,0,0,0,0,-5.2289,-5.2338,-5.2359,-5.2434,-5.2449,-5.2455,-5.2482,-5.2476,-5.2504,-5.2515,-5.253,-5.2558,-5.26,-5.2629,-5.267,-5.2757,-5.2761,-5.2796,-5.2807,-5.2817,-5.2825,-5.2868,-5.2883,-5.2725,-5.2725,-5.2725,0,0,-5.2334,-5.2355,-5.2386,-5.2444,-5.2466,-5.2514,-5.2466,-5.252,-5.2555,-5.2523,-5.2591,-5.2603,-5.2633,-5.2711,-5.2747,-5.2724,-5.287,-5.2825,-5.2833,-5.2836,-5.2877,-5.2892,-5.2906,-5.2729,-5.2729,-5.2728,0,0,-5.244,-5.2462,-5.2525,-5.2547,-5.258,-5.2583,-5.2598,-5.2626,-5.2632,-5.27,-5.2676,-5.2717,-5.2793,-5.2814,-5.2834,-5.2945,-5.2924,-5.2959,-5.3017,-5.306,-5.3072,-5.3083,-5.312,-5.3134,-5.2968,-5.2968,-5.2968,0,-5.2491,-5.2565,-5.256,-5.2615,-5.264,-5.2614,-5.2676,-5.2697,-5.2741,-5.2758,-5.2732,-5.2824,-5.2842,-5.2924,-5.2951,-5.2969,-5.2984,-5.2955,-5.3071,-5.3082,-5.3092,-5.3127,-5.3141,-5.2972,-5.2971,-5.2971,-5.297,0,-5.2625,-5.2676,-5.2723,-5.2766,-5.2796,-5.2855,-5.2856,-5.2887,-5.2878,-5.2883,-5.2951,-5.2972,-5.3015,-5.3034,-5.3026,-5.3114,-5.3098,-5.3073,-5.3026,-5.3111,-5.3144,-5.3157,-5.2977,-5.2976,-5.2974,-5.2974,0,0,-5.2766,-5.2804,-5.2821,-5.2838,-5.2871,-5.291,-5.2966,-5.3008,-5.3033,-5.3064,-5.3109,-5.3172,-5.3147,-5.317,-5.3164,-5.3202,-5.3284,-5.317,-5.3171,-5.3189,-5.3379,-5.3397,-5.3413,-5.3271,-5.3274,-5.3276,-5.3376,0,-5.2872,-5.2971,-5.2966,-5.3058,-5.3103,-5.3078,-5.3126,-5.315,-5.3156,-5.3194,-5.32,-5.3244,-5.321,-5.3223,-5.3259,-5.3267,-5.3322,-5.326,-5.331,-5.3312,-5.3302,-5.343,-5.345,-5.3543,-5.3389,-5.3391,-5.3392,0,-5.3009,-5.3044,-5.314,-5.3163,-5.3182,-5.3226,-5.3262,-5.33,-5.3325,-5.3327,-5.3352,-5.3338,-5.3392,-5.3345,-5.3418,-5.3376,-5.3396,-5.3402,-5.3406,-5.3409,-5.3356,-5.3434,-5.3573,-5.3586,-5.3413,-5.3411,-5.341,0,-5.3099,-5.317,-5.3235,-5.3252,-5.3281,-5.3312,-5.3325,-5.3348,-5.3373,-5.3404,-5.342,-5.3458,-5.3478,-5.3506,-5.3502,-5.3469,-5.3575,-5.3528,-5.3575,-5.3575,-5.3597,-5.3596,-5.3739,-5.3614,-5.3614,-5.3614,-5.3614,0,-5.3217,-5.3276,-5.3276,-5.3316,-5.338,-5.3374,-5.3437,-5.3447,-5.3467,-5.3506,-5.3487,-5.3525,-5.3518,-5.3555,-5.3552,-5.3611,-5.3621,-5.3622,-5.362,-5.3622,-5.3622,-5.3634,-5.3627,-5.3618,-5.3617,-5.3616,-5.3616,0,-5.3327,-5.333,-5.34,-5.3421,-5.3428,-5.3474,-5.3491,-5.3528,-5.3532,-5.3582,-5.3594,-5.3599,-5.3642,-5.3641,-5.3689,-5.3687,-5.3758,-5.375,-5.375,-5.3747,-5.3793,-5.3788,-5.3948,-5.3967,-5.3832,-5.3833,-5.3834,0,-5.3401,-5.3446,-5.3472,-5.3497,-5.3512,-5.3554,-5.3579,-5.3573,-5.3599,-5.363,-5.3663,-5.3703,-5.3735,-5.3803,-5.381,-5.3846,-5.3837,-5.3891,-5.3842,-5.3842,-5.3835,-5.3831,-5.3834,-5.39,-5.3901,-5.3902,-5.3903,0,-5.3531,-5.353,-5.3567,-5.3603,-5.3633,-5.3662,-5.3688,-5.371,-5.3707,-5.3737,-5.378,-5.3805,-5.3853,-5.3892,-5.3926,-5.3938,-5.3919,-5.3919,-5.3931,-5.3933,-5.3929,-5.3929,-5.3773,-5.3915,-5.3914,-5.3913,-5.3912,-5.3912,-5.3624,-5.3661,-5.3684,-5.3725,-5.3744,-5.3768,-5.3803,-5.3811,-5.3847,-5.3886,-5.388,-5.3927,-5.3948,-5.3992,-5.4007,-5.4042,-5.4023,-5.4042,-5.4046,-5.405,-5.4054,-5.3926,-5.4049,-5.4048,-5.4048,-5.4048,-5.4048,0,-5.375,-5.3763,-5.3801,-5.3838,-5.3869,-5.385,-5.3877,-5.3904,-5.3946,-5.3968,-5.4,-5.4047,-5.4085,-5.4094,-5.413,-5.4156,-5.4148,-5.4165,-5.4162,-5.4164,-5.407,-5.4055,-5.4171,-5.4171,-5.4171,-5.4171,-5.4171,-5.4171,-5.3819,-5.388,-5.3881,-5.395,-5.3962,-5.4009,-5.4025,-5.4047,-5.4064,-5.4118,-5.4149,-5.4155,-5.4171,-5.4207,-5.424,-5.4242,-5.4254,-5.4274,-5.4272,-5.4184,-5.4171,-5.416,-5.4145,-5.4278,-5.4278,-5.4363,-5.4364,-5.4365]}]]